STARLINK-32130

Last updated on Fri Sep 20 2024 00:02:03 GMT+0000 (Coordinated Universal Time)

1 60585U 24150C 24263.37200751 .00002167 00000+0 64148-4 0 9990 2 60585 53.1592 280.6588 0001503 92.6705 267.4472 15.39618833 5819
UTC large
Height (km)
Speed (km/s)
/
Latitude / Longitude
Inclination (degrees)
Orbital Period (minutes)
Azimuth
Elevation
Range (km)
Doppler Factor

Next 0 passes for location: London (51.5072 / 0.1276)

Sorry there are no passes over London.